ISS DEB (44306 NORAD) Tracking and Keplerian Element Data
This shows tracking and keplerian element data for the satellite.
Feedback or suggestion? Click here.
Element | Value |
Catalog | 44306 |
Name | ISS DEB |
Epoch Orbit | 16772 |
Epoch Day | 129.15755874 |
Epoch Year | 2022 |
RAAN | 95.1198 |
Inclination | 51.6272 |
Eccentricity | 0.0007124 |
Argument of Perigee | 63.7989 |
Mean Anonmoly | 296.3748 |
Mean Motion | 15.89726186 |
Decay Rate | 0.00194547 |
L1 | 1 44306U 98067QD 22129.15755874 .00194547 24829-4 65161-3 0 9996 |
L2 | 2 44306 51.6272 95.1198 0007124 63.7989 296.3748 15.89726186167726 |
Live tracking and technical data element details for ISS DEB (NORAD 44306). ISS DEB can be tracked NOW for your location showing map with azimuth and elevation plus other details from your city location.
Track the satellite on the map from your city or location and see movement details for azimuth, elevation, latitude, longitude, range, height, and movement on the map or in text.
IsCatalogInMostPopularTable: catalog: 44306, numindb: 25581
Update: records affected: 1
GetName: 44306 ISS DEB
Hit Count: updated at: Mon, 16 May 2022 12:51:10 GMT